Change the Weather History Date:

Tuesday, October 23, 2012

  Actual Average Record
Temperature  
Mean Temperature 82 °F -  
Max Temperature 88 °F - - ()
Min Temperature 76 °F - - ()
Cooling Degree Days 17    
Growing Degree Days 32 (Base 50)    
Moisture  
Dew Point 70 °F    
Average Humidity 68    
Maximum Humidity 80    
Minimum Humidity 52    
Precipitation  
Precipitation 0.00 in - - ()
Sea Level Pressure  
Sea Level Pressure 29.93 in    
Wind  
Wind Speed 10 mph (SE)    
Max Wind Speed 16 mph    
Max Gust Speed 22 mph    
Visibility 10 miles    
Events      
T = Trace of Precipitation, MM = Missing Value Source: NWS Daily Summary

Daily Weather History Graph

Daily Weather History Graph

Search for Another Location

Airport or City:

Trip Planner

Search our weather history database for the weather conditions in past years. The results will help you decide how hot, cold, wet, or windy it might be!

Date:

Astronomy

Oct. 23, 2012 Rise Set
Actual Time 7:34 AM CDT 6:51 PM CDT
Civil Twilight 7:10 AM CDT 7:15 PM CDT
Nautical Twilight 6:42 AM CDT 7:42 PM CDT
Astronomical Twilight 6:15 AM CDT 8:10 PM CDT
Moon 3:09 PM CDT (10/23) 1:57 AM CDT (10/23)
Length of Visible Light 12h 04m
Length of Day
11h 17m
Waxing Gibbous, 67% of the Moon is Illuminated
Oct 23
Waxing Gibbous
Oct 29
Full
Nov 6
Last Quarter
Nov 13
New
Nov 20
First Quarter

Hourly Weather History & Observations

Time (CDT) Temp. Heat Index Dew Point Humidity Pressure Visibility Wind Dir Wind Speed Gust Speed Precip Events Conditions
12:15 AM 79.2 °F - 71.2 °F 77% 29.94 in 10.0 mi SE 9.2 mph - N/A   Scattered Clouds
12:35 AM 78.8 °F - 71.6 °F 78% 29.93 in 10.0 mi SE 8.1 mph - N/A   Clear
12:55 AM 79.0 °F - 71.8 °F 78% 29.93 in 10.0 mi SSE 11.5 mph - N/A   Scattered Clouds
1:15 AM 79.0 °F - 71.8 °F 78% 29.93 in 10.0 mi SE 9.2 mph - N/A   Scattered Clouds
1:35 AM 79.0 °F - 71.2 °F 77% 29.92 in 10.0 mi SSE 10.4 mph - N/A   Clear
1:55 AM 79.0 °F - 71.6 °F 78% 29.92 in 10.0 mi SSE 10.4 mph - N/A   Clear
2:35 AM 78.8 °F - 71.4 °F 78% 29.91 in 10.0 mi SSE 10.4 mph - N/A   Clear
3:15 AM 79.2 °F - 70.9 °F 76% 29.91 in 10.0 mi SSE 11.5 mph 17.3 mph N/A   Scattered Clouds
3:55 AM 78.8 °F - 70.7 °F 76% 29.91 in 10.0 mi SSE 9.2 mph - N/A   Scattered Clouds
4:15 AM 78.8 °F - 70.7 °F 76% 29.91 in 10.0 mi SSE 9.2 mph - N/A   Scattered Clouds
4:55 AM 78.4 °F - 70.5 °F 77% 29.91 in 10.0 mi SSE 9.2 mph - N/A   Clear
5:15 AM 78.1 °F - 70.7 °F 78% 29.91 in 10.0 mi SSE 8.1 mph - N/A   Clear
5:35 AM 77.9 °F - 70.7 °F 78% 29.91 in 10.0 mi SSE 9.2 mph - N/A   Clear
5:55 AM 77.9 °F - 70.5 °F 78% 29.92 in 10.0 mi SSE 9.2 mph - N/A   Clear
6:35 AM 77.9 °F - 70.5 °F 78% 29.92 in 10.0 mi SE 9.2 mph - N/A   Clear
6:55 AM 77.9 °F - 70.5 °F 78% 29.92 in 10.0 mi SSE 8.1 mph - N/A   Clear
7:35 AM 77.5 °F - 70.3 °F 78% 29.93 in 10.0 mi SE 8.1 mph - N/A   Clear
8:15 AM 79.0 °F - 70.7 °F 76% 29.94 in 10.0 mi SSE 8.1 mph - N/A   Clear
8:35 AM 80.4 °F 84.1 °F 70.9 °F 73% 29.94 in 10.0 mi SSE 9.2 mph - N/A   Clear
10:15 AM 85.1 °F 89.8 °F 70.2 °F 61% 29.96 in 10.0 mi SE 15.0 mph 20.7 mph N/A   Clear
10:55 AM 86.2 °F 90.4 °F 69.1 °F 57% 29.96 in 10.0 mi SSE 15.0 mph 20.7 mph N/A   Clear
11:15 AM 86.7 °F 90.6 °F 68.9 °F 55% 29.97 in 10.0 mi SE 16.1 mph 20.7 mph N/A   Clear
11:35 AM 87.1 °F 91.6 °F 69.8 °F 56% 29.97 in 10.0 mi SSE 15.0 mph 20.7 mph N/A   Scattered Clouds
11:55 AM 87.1 °F 92.0 °F 70.0 °F 57% 29.97 in 10.0 mi SE 15.0 mph 20.7 mph N/A   Scattered Clouds
12:15 PM 86.7 °F 90.6 °F 68.9 °F 55% 29.96 in 10.0 mi SE 16.1 mph 21.9 mph N/A   Scattered Clouds
12:35 PM 87.4 °F 91.5 °F 68.7 °F 54% 29.95 in 10.0 mi SSE 15.0 mph 20.7 mph N/A   Scattered Clouds
12:55 PM 87.6 °F 91.5 °F 68.7 °F 53% 29.95 in 10.0 mi SSE 15.0 mph 19.6 mph N/A   Clear
1:35 PM 87.8 °F 91.8 °F 68.7 °F 53% 29.93 in 10.0 mi SE 13.8 mph 20.7 mph N/A   Clear
1:55 PM 87.8 °F 91.4 °F 68.4 °F 52% 29.93 in 10.0 mi SE 16.1 mph 21.9 mph N/A   Scattered Clouds
2:15 PM 87.6 °F 91.9 °F 69.1 °F 54% 29.92 in 10.0 mi SSE 11.5 mph 18.4 mph N/A   Scattered Clouds
2:35 PM 87.8 °F 92.2 °F 69.1 °F 54% 29.92 in 10.0 mi SSE 15.0 mph 19.6 mph N/A   Mostly Cloudy
2:55 PM 88.2 °F 92.5 °F 69.1 °F 53% 29.92 in 10.0 mi South 13.8 mph 21.9 mph N/A   Mostly Cloudy
3:15 PM 87.8 °F 92.2 °F 69.4 °F 54% 29.91 in 10.0 mi SE 12.7 mph 16.1 mph N/A   Overcast
3:35 PM 87.6 °F 91.9 °F 69.1 °F 54% 29.91 in 10.0 mi SE 12.7 mph 19.6 mph N/A   Overcast
3:55 PM 87.1 °F 90.9 °F 68.5 °F 54% 29.91 in 10.0 mi SE 11.5 mph - N/A   Mostly Cloudy
4:15 PM 87.1 °F 90.9 °F 68.4 °F 54% 29.91 in 10.0 mi SE 13.8 mph - N/A   Mostly Cloudy
4:35 PM 86.4 °F 90.0 °F 68.4 °F 55% 29.91 in 10.0 mi SE 13.8 mph - N/A   Mostly Cloudy
4:55 PM 85.6 °F 89.1 °F 68.2 °F 56% 29.91 in 10.0 mi SE 11.5 mph 17.3 mph N/A   Scattered Clouds
5:15 PM 85.1 °F 88.5 °F 68.2 °F 57% 29.92 in 10.0 mi SE 12.7 mph - N/A   Clear
5:35 PM 84.6 °F 87.9 °F 68.2 °F 58% 29.92 in 10.0 mi SE 12.7 mph - N/A   Clear
5:55 PM 84.0 °F 87.6 °F 68.7 °F 60% 29.92 in 10.0 mi ESE 11.5 mph - N/A   Clear
6:15 PM 82.9 °F 86.3 °F 68.9 °F 62% 29.92 in 10.0 mi SE 12.7 mph - N/A   Clear
6:35 PM 81.7 °F 85.1 °F 69.3 °F 66% 29.92 in 10.0 mi SE 11.5 mph - N/A   Clear
6:55 PM 80.4 °F 83.4 °F 69.1 °F 68% 29.92 in 10.0 mi SE 9.2 mph - N/A   Clear
7:15 PM 79.3 °F - 69.3 °F 71% 29.92 in 10.0 mi SE 8.1 mph - N/A   Clear
7:35 PM 78.6 °F - 69.3 °F 73% 29.93 in 10.0 mi North - - N/A   Clear
7:55 PM 77.9 °F - 69.6 °F 76% 29.93 in 10.0 mi SE 5.8 mph - N/A   Clear
8:15 PM 77.7 °F - 69.8 °F 76% 29.94 in 10.0 mi SE 6.9 mph - N/A   Clear
8:35 PM 77.0 °F - 69.8 °F 78% 29.94 in 10.0 mi SE 5.8 mph - N/A   Clear
8:55 PM 76.6 °F - 70.0 °F 80% 29.95 in 10.0 mi SE 6.9 mph - N/A   Clear
9:15 PM 76.6 °F - 69.8 °F 79% 29.95 in 10.0 mi SE 8.1 mph - N/A   Clear
9:35 PM 77.0 °F - 69.8 °F 78% 29.95 in 10.0 mi SE 8.1 mph - N/A   Clear
9:55 PM 77.0 °F - 70.0 °F 79% 29.96 in 10.0 mi SE 8.1 mph - N/A   Clear
10:15 PM 76.6 °F - 70.0 °F 80% 29.96 in 10.0 mi SE 6.9 mph - N/A   Clear
10:35 PM 76.6 °F - 70.2 °F 80% 29.96 in 10.0 mi SE 8.1 mph - N/A   Clear
10:55 PM 77.4 °F - 70.0 °F 78% 29.95 in 10.0 mi SE 6.9 mph - N/A   Clear
11:15 PM 76.8 °F - 69.6 °F 78% 29.95 in 10.0 mi SE 5.8 mph - N/A   Scattered Clouds
11:35 PM 76.8 °F - 69.6 °F 78% 29.95 in 10.0 mi SE 8.1 mph - N/A   Clear
11:55 PM 77.2 °F - 69.1 °F 76% 29.95 in 10.0 mi SE 8.1 mph - N/A   Clear